Weather History for KMRB - September, 2013

Change the Weather History Date:

Thursday, September 12, 2013

  Actual Average Record
Temperature  
Mean Temperature 81 °F 67 °F  
Max Temperature 93 °F 78 °F 100 °F (1931)
Min Temperature 68 °F 56 °F 34 °F (1967)
Degree Days  
Heating Degree Days 0 2  
Month to date heating degree days 2 14  
Since 1 July heating degree days 6 21  
Cooling Degree Days 16 4  
Month to date cooling degree days 97 57  
Year to date cooling degree days 1015 849  
Growing Degree Days 30 (Base 50)    
Moisture  
Dew Point 66 °F    
Average Humidity 66    
Maximum Humidity 93    
Minimum Humidity 38    
Precipitation  
Precipitation T in 0.12 in 0.75 in (1953)
Month to date precipitation 0.44 1.37  
Year to date precipitation 22.82 27.61  
Sea Level Pressure  
Sea Level Pressure 29.90 in    
Wind  
Wind Speed 6 mph (WSW)    
Max Wind Speed 21 mph    
Max Gust Speed 29 mph    
Visibility 7 miles    
Events Rain    
T = Trace of Precipitation, MM = Missing Value Source: NWS Daily Summary

Daily Weather History Graph

Daily Weather History Graph

Search for Another Location

Airport or City:

Trip Planner

Search our weather history database for the weather conditions in past years. The results will help you decide how hot, cold, wet, or windy it might be!

Date:

Astronomy

Sep. 12, 2013 Rise Set
Actual Time 6:50 AM EDT 7:24 PM EDT
Civil Twilight 6:23 AM EDT 7:51 PM EDT
Nautical Twilight 5:51 AM EDT 8:23 PM EDT
Astronomical Twilight 5:18 AM EDT 8:56 PM EDT
Moon 2:14 PM EDT (9/12) No Moon Set
Length of Visible Light 13h 28m
Length of Day
12h 34m
Waxing Crescent, 50% of the Moon is Illuminated
Sep 12
Waxing Crescent
Sep 12
First Quarter
Sep 19
Full
Sep 26
Last Quarter
Oct 4
New

Hourly Weather History & Observations

Time (EDT) Temp. Heat Index Dew Point Humidity Pressure Visibility Wind Dir Wind Speed Gust Speed Precip Events Conditions
12:53 AM 71.1 °F - 69.1 °F 93% 30.00 in 2.5 mi Calm Calm - N/A   Clear
1:14 AM 71.6 °F - 69.8 °F 94% 30.01 in 4.0 mi Calm Calm - N/A   Clear
1:34 AM 71.6 °F - 68.0 °F 88% 30.01 in 2.5 mi Calm Calm - N/A   Clear
1:44 AM 69.8 °F - 68.0 °F 94% 30.00 in 4.0 mi Calm Calm - N/A   Clear
1:53 AM 70.0 °F - 66.9 °F 90% 29.99 in 3.0 mi Calm Calm - N/A   Clear
2:19 AM 69.8 °F - 68.0 °F 94% 29.99 in 2.0 mi Calm Calm - N/A   Clear
2:41 AM 69.8 °F - 66.2 °F 88% 29.98 in 5.0 mi Calm Calm - N/A   Clear
2:53 AM 69.1 °F - 66.9 °F 93% 29.97 in 2.5 mi Calm Calm - N/A   Clear
3:01 AM 69.8 °F - 66.2 °F 88% 29.98 in 4.0 mi Calm Calm - N/A   Clear
3:53 AM 69.1 °F - 66.0 °F 90% 29.96 in 7.0 mi Calm Calm - N/A   Clear
4:53 AM 70.0 °F - 66.0 °F 87% 29.96 in 9.0 mi Calm Calm - N/A   Mostly Cloudy
5:53 AM 69.1 °F - 66.0 °F 90% 29.96 in 8.0 mi Calm Calm - N/A   Overcast
6:53 AM 69.1 °F - 66.0 °F 90% 29.96 in 9.0 mi SW 3.5 mph - N/A   Partly Cloudy
7:53 AM 71.1 °F - 66.9 °F 87% 29.96 in 7.0 mi Calm Calm - N/A   Mostly Cloudy
8:53 AM 73.0 °F - 68.0 °F 84% 29.94 in 8.0 mi Calm Calm - N/A   Mostly Cloudy
9:53 AM 78.1 °F - 69.1 °F 74% 29.93 in 9.0 mi SW 4.6 mph - N/A   Clear
10:53 AM 82.9 °F 86.5 °F 69.1 °F 63% 29.91 in 9.0 mi South 4.6 mph - N/A   Clear
11:53 AM 86.0 °F 89.4 °F 68.0 °F 55% 29.88 in 8.0 mi SW 9.2 mph - N/A   Scattered Clouds
12:53 PM 88.0 °F 92.1 °F 69.1 °F 53% 29.86 in 9.0 mi SW 9.2 mph - N/A   Partly Cloudy
1:53 PM 89.1 °F 92.9 °F 68.0 °F 50% 29.83 in 9.0 mi WSW 10.4 mph - N/A   Partly Cloudy
2:53 PM 91.9 °F 92.9 °F 63.0 °F 38% 29.78 in 10.0 mi West 11.5 mph 19.6 mph N/A   Partly Cloudy
3:53 PM 91.0 °F 91.9 °F 63.0 °F 39% 29.75 in 10.0 mi West 16.1 mph 25.3 mph N/A   Clear
4:53 PM 87.1 °F 87.5 °F 62.1 °F 43% 29.75 in 10.0 mi NW 15.0 mph - N/A   Clear
5:53 PM 84.0 °F 84.0 °F 60.1 °F 44% 29.79 in 10.0 mi West 11.5 mph - N/A   Scattered Clouds
6:53 PM 81.0 °F 81.3 °F 59.0 °F 47% 29.78 in 10.0 mi West 15.0 mph 23.0 mph N/A   Clear
7:53 PM 79.0 °F - 60.1 °F 52% 29.79 in 10.0 mi West 10.4 mph - N/A   Partly Cloudy
8:53 PM 75.0 °F - 63.0 °F 66% 29.79 in 10.0 mi West 6.9 mph - 0.00 in Rain Light Rain
9:53 PM 73.0 °F - 64.0 °F 73% 29.79 in 10.0 mi West 6.9 mph - 0.00 in   Overcast
10:53 PM 73.0 °F - 64.0 °F 73% 29.79 in 10.0 mi Calm Calm - N/A   Scattered Clouds
11:53 PM 72.0 °F - 64.0 °F 76% 29.78 in 10.0 mi Calm Calm - N/A   Scattered Clouds